Ft Lauderdale, FL

10:16 PM EDT on April 24, 2017 (GMT -0400)
Fort Lauderdale-Hollywood International

Weather History for KFLL - February, 2013

Change the Weather History Date:

Tuesday, February 12, 2013

  Actual Average Record
Temperature  
Mean Temperature 77 °F 71 °F  
Max Temperature 84 °F 78 °F 89 °F (1913)
Min Temperature 69 °F 64 °F 36 °F (1919)
Degree Days  
Heating Degree Days 0 1  
Month to date heating degree days 2 12  
Since 1 July heating degree days 26 92  
Cooling Degree Days 12 7  
Month to date cooling degree days 73 75  
Year to date cooling degree days 328 245  
Growing Degree Days 26 (Base 50)    
Moisture  
Dew Point 66 °F    
Average Humidity 70    
Maximum Humidity 84    
Minimum Humidity 55    
Precipitation  
Precipitation 0.00 in 0.14 in 1.25 in (1916)
Month to date precipitation 0.02 1.35  
Year to date precipitation 1.00 4.98  
Snow  
Snow 0.00 in - - ()
Month to date snowfall 0.0  
Since 1 July snowfall 0.0  
Snow Depth 0.00 in    
Sea Level Pressure  
Sea Level Pressure 30.06 in    
Wind  
Wind Speed 8 mph (South)    
Max Wind Speed 17 mph    
Max Gust Speed 22 mph    
Visibility 10 miles    
Events      
T = Trace of Precipitation, MM = Missing Value Source: NWS Daily Summary

Daily Weather History Graph

Daily Weather History Graph

Search for Another Location

Airport or City:

Trip Planner

Search our weather history database for the weather conditions in past years. The results will help you decide how hot, cold, wet, or windy it might be!

Date:

Astronomy

Feb. 12, 2013 Rise Set
Actual Time 6:58 AM EST 6:11 PM EST
Civil Twilight 6:34 AM EST 6:35 PM EST
Nautical Twilight 6:07 AM EST 7:02 PM EST
Astronomical Twilight 5:40 AM EST 7:29 PM EST
Moon 8:14 AM EST (2/12) 8:47 PM EST (2/12)
Length of Visible Light 12h 01m
Length of Day
11h 13m
Waxing Crescent, 7% of the Moon is Illuminated
Feb 12
Waxing Crescent
Feb 17
First Quarter
Feb 25
Full
Mar 4
Last Quarter
Mar 11
New

Hourly Weather History & Observations

Time (EST) Temp. Heat Index Dew Point Humidity Pressure Visibility Wind Dir Wind Speed Gust Speed Precip Events Conditions
12:53 AM 72.0 °F - 64.0 °F 76% 30.12 in 10.0 mi SSE 6.9 mph - N/A   Partly Cloudy
1:53 AM 72.0 °F - 64.0 °F 76% 30.11 in 10.0 mi SSE 6.9 mph - N/A   Partly Cloudy
2:53 AM 72.0 °F - 64.0 °F 76% 30.09 in 10.0 mi SSE 9.2 mph - N/A   Partly Cloudy
3:53 AM 72.0 °F - 64.9 °F 78% 30.08 in 10.0 mi South 5.8 mph - N/A   Partly Cloudy
4:53 AM 71.1 °F - 64.9 °F 81% 30.09 in 10.0 mi SSW 3.5 mph - N/A   Scattered Clouds
5:53 AM 70.0 °F - 64.9 °F 84% 30.09 in 10.0 mi South 3.5 mph - N/A   Partly Cloudy
6:53 AM 69.1 °F - 64.9 °F 87% 30.09 in 10.0 mi SSW 3.5 mph - N/A   Partly Cloudy
7:53 AM 72.0 °F - 66.0 °F 81% 30.10 in 10.0 mi South 4.6 mph - N/A   Partly Cloudy
8:53 AM 75.9 °F - 66.0 °F 71% 30.10 in 10.0 mi South 9.2 mph - N/A   Scattered Clouds
9:53 AM 78.1 °F - 64.9 °F 64% 30.12 in 10.0 mi South 9.2 mph - N/A   Scattered Clouds
10:53 AM 80.1 °F 81.9 °F 64.9 °F 60% 30.12 in 10.0 mi SSW 11.5 mph - N/A   Partly Cloudy
11:53 AM 82.0 °F 83.4 °F 64.0 °F 54% 30.10 in 10.0 mi SSW 9.2 mph 17.3 mph N/A   Partly Cloudy
12:53 PM 82.0 °F 84.1 °F 66.0 °F 58% 30.07 in 10.0 mi SE 13.8 mph - N/A   Mostly Cloudy
1:53 PM 81.0 °F 83.3 °F 66.9 °F 62% 30.04 in 10.0 mi SSE 13.8 mph - N/A   Mostly Cloudy
2:53 PM 78.1 °F - 68.0 °F 71% 30.02 in 10.0 mi SSE 16.1 mph - N/A   Mostly Cloudy
3:53 PM 81.0 °F 83.3 °F 66.9 °F 62% 30.00 in 10.0 mi South 12.7 mph - N/A   Scattered Clouds
4:53 PM 79.0 °F - 66.9 °F 66% 29.98 in 10.0 mi South 15.0 mph - N/A   Scattered Clouds
5:53 PM 77.0 °F - 66.9 °F 71% 29.99 in 10.0 mi South 9.2 mph - N/A   Partly Cloudy
6:53 PM 75.9 °F - 66.9 °F 74% 29.99 in 10.0 mi South 9.2 mph - N/A   Partly Cloudy
7:53 PM 73.9 °F - 68.0 °F 82% 29.99 in 10.0 mi South 8.1 mph - N/A   Clear
8:53 PM 73.9 °F - 68.0 °F 82% 30.00 in 10.0 mi South 6.9 mph - N/A   Clear
9:53 PM 73.0 °F - 68.0 °F 84% 30.02 in 10.0 mi SSW 3.5 mph - N/A   Clear
10:53 PM 73.0 °F - 68.0 °F 84% 30.03 in 10.0 mi South 3.5 mph - N/A   Clear
11:53 PM 72.0 °F - 68.0 °F 87% 30.02 in 9.0 mi South 3.5 mph - N/A   Clear